TimeCDT,TemperatureF,Dew PointF,Humidity,Sea Level PressureIn,VisibilityMPH,Wind Direction,Wind SpeedMPH,Gust SpeedMPH,PrecipitationIn,Events,Conditions,WindDirDegrees,DateUTC
12:15 AM,68.0,62.6,83,30.05,10.0,SSW,3.5,-,N/A,,Clear,210,2013-07-11 05:15:00
12:35 AM,66.2,60.8,83,30.04,10.0,West,3.5,-,N/A,,Clear,270,2013-07-11 05:35:00
12:55 AM,69.8,60.8,73,30.04,10.0,Calm,Calm,-,N/A,,Clear,0,2013-07-11 05:55:00
1:15 AM,69.8,59.0,68,30.04,10.0,West,5.8,-,N/A,,Clear,260,2013-07-11 06:15:00
1:35 AM,69.8,59.0,68,30.04,10.0,West,6.9,-,N/A,,Clear,280,2013-07-11 06:35:00
1:55 AM,71.6,59.0,64,30.03,10.0,North,3.5,-,N/A,,Clear,350,2013-07-11 06:55:00
2:15 AM,73.4,59.0,61,30.03,10.0,West,3.5,-,N/A,,Clear,270,2013-07-11 07:15:00
2:35 AM,73.4,57.2,57,30.03,10.0,Calm,Calm,-,N/A,,Clear,0,2013-07-11 07:35:00
2:55 AM,71.6,59.0,64,30.02,10.0,WSW,4.6,-,N/A,,Clear,240,2013-07-11 07:55:00
3:15 AM,71.6,57.2,60,30.02,10.0,Calm,Calm,-,N/A,,Clear,0,2013-07-11 08:15:00
3:35 AM,68.0,59.0,73,30.01,10.0,Calm,Calm,-,N/A,,Clear,0,2013-07-11 08:35:00
3:55 AM,69.8,57.2,64,30.01,10.0,WSW,5.8,-,N/A,,Clear,240,2013-07-11 08:55:00
4:15 AM,73.4,57.2,57,30.01,10.0,SW,9.2,-,N/A,,Clear,230,2013-07-11 09:15:00
4:35 AM,73.4,57.2,57,30.00,10.0,SSW,5.8,-,N/A,,Clear,210,2013-07-11 09:35:00
4:55 AM,73.4,57.2,57,30.00,10.0,WSW,10.4,-,N/A,,Clear,250,2013-07-11 09:55:00
5:15 AM,73.4,55.4,53,29.99,10.0,SW,4.6,-,N/A,,Clear,230,2013-07-11 10:15:00
5:35 AM,73.4,55.4,53,29.99,10.0,Calm,Calm,-,N/A,,Clear,0,2013-07-11 10:35:00
5:55 AM,73.4,55.4,53,29.99,10.0,Calm,Calm,-,N/A,,Clear,0,2013-07-11 10:55:00
6:15 AM,73.4,55.4,53,29.99,10.0,Calm,Calm,-,N/A,,Clear,0,2013-07-11 11:15:00
6:35 AM,73.4,55.4,53,29.99,10.0,Calm,Calm,-,N/A,,Clear,0,2013-07-11 11:35:00
6:55 AM,73.4,53.6,50,29.99,10.0,South,4.6,-,N/A,,Clear,190,2013-07-11 11:55:00
7:15 AM,73.4,57.2,57,29.98,10.0,NE,3.5,-,N/A,,Clear,50,2013-07-11 12:15:00
7:35 AM,73.4,59.0,61,29.98,10.0,NE,4.6,-,N/A,,Clear,50,2013-07-11 12:35:00
7:55 AM,73.4,59.0,61,29.98,10.0,ENE,4.6,-,N/A,,Clear,60,2013-07-11 12:55:00
8:15 AM,75.2,62.6,65,29.97,10.0,ENE,3.5,-,N/A,,Clear,60,2013-07-11 13:15:00
8:35 AM,77.0,62.6,61,29.97,10.0,NE,3.5,-,N/A,,Clear,40,2013-07-11 13:35:00
8:55 AM,78.8,62.6,57,29.97,10.0,Calm,Calm,-,N/A,,Clear,0,2013-07-11 13:55:00
9:15 AM,82.4,64.4,54,29.96,10.0,Calm,Calm,-,N/A,,Clear,0,2013-07-11 14:15:00
9:35 AM,80.6,66.2,61,29.96,10.0,NNE,3.5,-,N/A,,Clear,30,2013-07-11 14:35:00
9:55 AM,82.4,66.2,58,29.95,10.0,Calm,Calm,-,N/A,,Clear,0,2013-07-11 14:55:00
10:15 AM,82.4,68.0,62,29.95,10.0,NE,5.8,-,N/A,,Clear,50,2013-07-11 15:15:00
10:35 AM,84.2,68.0,58,29.94,10.0,ENE,4.6,-,N/A,,Clear,60,2013-07-11 15:35:00
10:55 AM,84.2,68.0,58,29.94,10.0,NE,8.1,-,N/A,,Clear,40,2013-07-11 15:55:00
11:15 AM,84.2,68.0,58,29.93,10.0,North,6.9,-,N/A,,Clear,10,2013-07-11 16:15:00
11:35 AM,86.0,69.8,58,29.93,10.0,NNE,5.8,-,N/A,,Clear,30,2013-07-11 16:35:00
11:55 AM,86.0,68.0,55,29.92,10.0,ENE,6.9,-,N/A,,Clear,70,2013-07-11 16:55:00
12:15 PM,86.0,66.2,51,29.92,10.0,East,9.2,-,N/A,,Clear,90,2013-07-11 17:15:00
12:35 PM,89.6,66.2,46,29.91,10.0,ENE,10.4,-,N/A,,Clear,60,2013-07-11 17:35:00
12:55 PM,89.6,66.2,46,29.90,10.0,NE,9.2,-,N/A,,Clear,50,2013-07-11 17:55:00
1:15 PM,89.6,66.2,46,29.89,10.0,NE,3.5,-,N/A,,Clear,50,2013-07-11 18:15:00
1:35 PM,91.4,66.2,43,29.89,10.0,East,6.9,-,N/A,,Clear,100,2013-07-11 18:35:00
1:55 PM,91.4,68.0,46,29.88,10.0,East,10.4,-,N/A,,Clear,80,2013-07-11 18:55:00
2:15 PM,93.2,64.4,38,29.88,10.0,ENE,10.4,-,N/A,,Clear,70,2013-07-11 19:15:00
2:35 PM,93.2,62.6,36,29.87,10.0,NE,4.6,-,N/A,Rain,Light Rain,50,2013-07-11 19:35:00
2:55 PM,93.2,55.4,28,29.87,10.0,North,5.8,-,N/A,Rain,Light Rain,10,2013-07-11 19:55:00
3:15 PM,95.0,48.2,20,29.86,10.0,West,3.5,-,N/A,Rain,Light Rain,260,2013-07-11 20:15:00
3:35 PM,95.0,51.8,23,29.86,10.0,SW,6.9,17.3,0.01,Rain,Light Rain,230,2013-07-11 20:35:00
3:55 PM,95.0,50.0,22,29.85,10.0,South,5.8,16.1,0.01,Rain,Light Rain,190,2013-07-11 20:55:00
4:15 PM,96.8,48.2,19,29.84,10.0,WSW,4.6,-,N/A,Rain,Light Rain,250,2013-07-11 21:15:00
4:35 PM,95.0,53.6,25,29.83,10.0,West,6.9,-,0.01,Rain,Light Rain,270,2013-07-11 21:35:00
4:55 PM,95.0,55.4,26,29.82,10.0,SSW,6.9,-,0.02,Rain,Light Rain,210,2013-07-11 21:55:00
5:15 PM,93.2,55.4,28,29.80,10.0,SSE,9.2,16.1,N/A,Rain,Light Rain,160,2013-07-11 22:15:00
5:35 PM,93.2,59.0,32,29.80,10.0,South,6.9,-,0.01,Rain,Light Rain,190,2013-07-11 22:35:00
5:55 PM,93.2,57.2,30,29.79,10.0,South,11.5,16.1,0.02,Rain,Light Rain,190,2013-07-11 22:55:00
6:15 PM,91.4,59.0,34,29.79,10.0,South,11.5,18.4,N/A,Rain,Light Rain,170,2013-07-11 23:15:00
6:35 PM,91.4,57.2,31,29.79,10.0,SSE,11.5,19.6,0.01,Rain,Light Rain,160,2013-07-11 23:35:00
6:55 PM,86.0,57.2,37,29.79,10.0,SSE,11.5,19.6,0.01,Rain,Light Rain,150,2013-07-11 23:55:00
7:15 PM,86.0,57.2,37,29.79,10.0,SSE,9.2,-,N/A,,Clear,160,2013-07-12 00:15:00
7:35 PM,89.6,53.6,29,29.77,10.0,South,18.4,29.9,N/A,Thunderstorm,Clear,170,2013-07-12 00:35:00
7:55 PM,89.6,50.0,26,29.77,10.0,South,24.2,31.1,N/A,Thunderstorm,Clear,190,2013-07-12 00:55:00
8:15 PM,86.0,50.0,29,29.77,10.0,South,19.6,39.1,N/A,Thunderstorm,Thunderstorm,190,2013-07-12 01:15:00
8:35 PM,86.0,50.0,29,29.76,10.0,South,27.6,41.4,N/A,,Clear,180,2013-07-12 01:35:00
8:55 PM,86.0,50.0,29,29.76,5.0,South,25.3,36.8,N/A,,Haze,190,2013-07-12 01:55:00
9:15 PM,82.4,50.0,32,29.75,5.0,South,23.0,32.2,N/A,,Haze,190,2013-07-12 02:15:00
9:35 PM,84.2,48.2,29,29.75,10.0,South,26.5,38.0,N/A,,Clear,190,2013-07-12 02:35:00
9:55 PM,86.0,48.2,27,29.76,10.0,South,31.1,44.9,N/A,,Clear,170,2013-07-12 02:55:00
10:15 PM,84.2,50.0,30,29.77,10.0,South,28.8,41.4,N/A,,Clear,170,2013-07-12 03:15:00
10:35 PM,84.2,51.8,33,29.77,10.0,South,32.2,41.4,N/A,,Clear,180,2013-07-12 03:35:00
10:55 PM,84.2,53.6,35,29.77,10.0,South,27.6,42.6,N/A,,Clear,180,2013-07-12 03:55:00
11:15 PM,82.4,53.6,37,29.78,10.0,South,24.2,35.7,N/A,,Clear,180,2013-07-12 04:15:00
11:35 PM,84.2,53.6,35,29.77,10.0,South,27.6,39.1,N/A,,Clear,180,2013-07-12 04:35:00
11:55 PM,84.2,55.4,37,29.77,10.0,South,25.3,40.3,N/A,,Clear,180,2013-07-12 04:55:00